sat.trackr.live / text

‹ back to catalog

S-NET A

NORAD 43188 · 2018-014J

PAYLOAD ACTIVE UNKNOWN

§ Identity

Operator
Country
GER
Launch date
2018-02-01
Launch site
VOSTO
Launch vehicle
Mass (kg)
RCS (m²)

External: N2YO · Heavens-Above · Gunter

§ Orbital elements

Epoch: 2026-05-24T16:59:10.763808Z

Period
94.96 min
Inclination
97.5394°
Eccentricity
0.0010636
Mean motion
15.16418042 rev/d
Perigee alt
509.3 km
Apogee alt
524.0 km
Semi-major
6,894.8 km
B*
2.0299e-4
RAAN
49.8369°
Arg perigee
94.8809°
Mean anomaly
265.3639°
Rev number
45,520

§ Raw data

S-NET A1 43188U 18014J   26144.70776347  .00003882  00000+0  20299-3 0  99912 43188  97.5394  49.8369 0010636  94.8809 265.3639 15.16418042455208

JSON: /api/v1/satellites/43188 · /tle

For live sub-satellite position, see the globe view (requires WebGL).

§ Visibility from observer

Set your observer location to see the next 7 days of passes ≥ 10°. The values pass through the URL so the page stays shareable.

No JS? Fill the form by hand. The geolocation button needs JavaScript.

§ Radio — SatNOGS DB

ModeDescriptionDownlinkUplink
AFSK TUBiX10 AFSK 1k2 TLM 435.950 MHz
FM S-Band Downlink 2.263 GHz

2 transmitters · refreshed weekly from db.satnogs.org